Change the Weather History Date:

Wednesday, February 26, 2014

  Actual Average (KNHK) Record (KNHK)
Temperature  
Mean Temperature 30 °F -  
Max Temperature 33 °F 43 °F 36 °F (2014)
Min Temperature 26 °F 30 °F 19 °F (2015)
Degree Days  
Heating Degree Days 36    
Moisture  
Dew Point 22 °F    
Average Humidity 72    
Maximum Humidity 93    
Minimum Humidity 38    
Precipitation  
Precipitation 0.00 in - - ()
Sea Level Pressure  
Sea Level Pressure 29.95 in    
Wind  
Wind Speed 1 mph (NNW)    
Max Wind Speed 7 mph    
Max Gust Speed -    
Visibility 8 miles    
Events      
Averages and records for this station are not official NWS values.
T = Trace of Precipitation, MM = Missing Value Source: NWS Daily Summary

Daily Weather History Graph

Daily Weather History Graph

Search for Another Location

Airport or City:

Trip Planner

Search our weather history database for the weather conditions in past years. The results will help you decide how hot, cold, wet, or windy it might be!

Date:

Astronomy

Feb. 26, 2014 Rise Set
Actual Time 6:42 AM EST 5:56 PM EST
Civil Twilight 6:15 AM EST 6:22 PM EST
Nautical Twilight 5:45 AM EST 6:53 PM EST
Astronomical Twilight 5:14 AM EST 7:24 PM EST
Moon 4:24 AM EST (2/26) 3:09 PM EST (2/26)
Length of Visible Light 12h 07m
Length of Day
11h 13m
Waning Crescent, 10% of the Moon is Illuminated
Feb 26
Waning Crescent
Mar 1
New
Mar 8
First Quarter
Mar 16
Full
Mar 23
Last Quarter

Hourly Weather History & Observations

Time (EST) Temp. Windchill Dew Point Humidity Pressure Visibility Wind Dir Wind Speed Gust Speed Precip Events Conditions
12:16 AM 30.2 °F - 26.6 °F 86% 30.04 in 10.0 mi Calm Calm - N/A   Overcast
12:36 AM 30.2 °F - 26.6 °F 86% 30.04 in 10.0 mi Calm Calm - N/A   Overcast
12:56 AM 30.2 °F - 26.6 °F 86% 30.04 in 10.0 mi Calm Calm - N/A   Overcast
1:16 AM 30.2 °F - 26.6 °F 86% 30.04 in 10.0 mi Calm Calm - N/A   Overcast
1:36 AM 30.2 °F - 26.6 °F 86% 30.03 in 10.0 mi Calm Calm - N/A   Overcast
1:56 AM 30.2 °F - 26.6 °F 86% 30.01 in 10.0 mi Calm Calm - N/A   Overcast
2:16 AM 30.2 °F - 26.6 °F 86% 30.00 in 10.0 mi Calm Calm - N/A   Overcast
2:36 AM 30.2 °F - 23.0 °F 75% 29.98 in 10.0 mi Calm Calm - N/A   Overcast
2:57 AM 30.2 °F - 23.0 °F 75% 29.97 in 10.0 mi Calm Calm - N/A   Overcast
3:17 AM 30.2 °F - 23.0 °F 75% 29.97 in 10.0 mi Calm Calm - N/A   Overcast
3:37 AM 32.0 °F - 21.2 °F 64% 29.97 in 10.0 mi Calm Calm - N/A   Overcast
3:57 AM 32.0 °F 28.7 °F 21.2 °F 64% 29.97 in 10.0 mi ENE 3.5 mph - N/A   Overcast
4:17 AM 30.2 °F - 23.0 °F 75% 29.98 in 4.0 mi Calm Calm - N/A   Overcast
4:37 AM 30.2 °F - 24.8 °F 80% 29.98 in 1.8 mi Calm Calm - N/A   Overcast
4:57 AM 28.4 °F - 26.6 °F 93% 29.97 in 1.8 mi Calm Calm - N/A   Overcast
5:17 AM 28.4 °F - 26.6 °F 93% 29.96 in 2.5 mi Calm Calm - N/A   Overcast
5:37 AM 28.4 °F - 26.6 °F 93% 29.96 in 4.0 mi Calm Calm - N/A   Overcast
5:57 AM 28.4 °F - 26.6 °F 93% 29.97 in 7.0 mi Calm Calm - N/A   Overcast
6:17 AM 28.4 °F 24.6 °F 26.6 °F 93% 29.97 in 10.0 mi ESE 3.5 mph - N/A   Overcast
6:37 AM 28.4 °F 24.6 °F 26.6 °F 93% 29.96 in 4.0 mi ESE 3.5 mph - N/A   Overcast
6:57 AM 28.4 °F 24.6 °F 26.6 °F 93% 29.96 in 5.0 mi East 3.5 mph - N/A   Overcast
7:17 AM 28.4 °F - 26.6 °F 93% 29.96 in 3.0 mi Calm Calm - N/A   Overcast
7:37 AM 28.4 °F - 26.6 °F 93% 29.97 in 7.0 mi Calm Calm - N/A   Overcast
7:57 AM 30.2 °F - 26.6 °F 86% 29.99 in 10.0 mi Calm Calm - N/A   Overcast
8:17 AM 30.2 °F - 26.6 °F 86% 30.00 in 3.0 mi Calm Calm - N/A   Overcast
8:37 AM 30.2 °F - 26.6 °F 86% 30.01 in 1.8 mi Calm Calm - N/A   Overcast
8:57 AM 30.2 °F - 26.6 °F 86% 30.01 in 2.0 mi Calm Calm - N/A   Overcast
9:17 AM 30.2 °F - 26.6 °F 86% 30.01 in 1.5 mi Calm Calm - N/A   Overcast
9:37 AM 30.2 °F - 28.4 °F 93% 30.01 in 1.2 mi Calm Calm - N/A   Overcast
9:57 AM 30.2 °F - 28.4 °F 93% 30.00 in 1.0 mi Calm Calm - N/A   Overcast
10:17 AM 32.0 °F 27.5 °F 28.4 °F 87% 29.99 in 5.0 mi SW 4.6 mph - N/A   Overcast
10:37 AM 32.0 °F 27.5 °F 28.4 °F 87% 29.99 in 7.0 mi WSW 4.6 mph - N/A   Overcast
10:57 AM 32.0 °F 27.5 °F 28.4 °F 87% 29.98 in 3.0 mi West 4.6 mph - N/A   Overcast
11:17 AM 32.0 °F 27.5 °F 28.4 °F 87% 29.97 in 5.0 mi West 4.6 mph - N/A   Overcast
11:38 AM 32.0 °F 26.4 °F 28.4 °F 87% 29.97 in 3.0 mi West 5.8 mph - N/A   Overcast
11:58 AM 32.0 °F 28.7 °F 28.4 °F 87% 29.96 in 5.0 mi NW 3.5 mph - N/A   Overcast
12:18 PM 32.0 °F 28.7 °F 28.4 °F 87% 29.95 in 10.0 mi NW 3.5 mph - N/A   Overcast
12:38 PM 32.0 °F 27.5 °F 28.4 °F 87% 29.94 in 10.0 mi NNW 4.6 mph - N/A   Overcast
12:58 PM 32.0 °F - 28.4 °F 87% 29.93 in 10.0 mi Calm Calm - N/A   Overcast
1:18 PM 32.0 °F 27.5 °F 28.4 °F 87% 29.92 in 10.0 mi WNW 4.6 mph - N/A   Overcast
1:38 PM 32.0 °F 25.6 °F 26.6 °F 80% 29.91 in 10.0 mi NW 6.9 mph - N/A   Overcast
1:58 PM 32.0 °F 25.6 °F 26.6 °F 80% 29.90 in 10.0 mi NW 6.9 mph - N/A   Overcast
2:58 PM 32.0 °F - 21.2 °F 64% 29.88 in 10.0 mi Calm Calm - N/A   Mostly Cloudy
3:18 PM 33.8 °F 29.6 °F 21.2 °F 60% 29.88 in 10.0 mi NW 4.6 mph - N/A   Scattered Clouds
3:38 PM 33.8 °F 29.6 °F 19.4 °F 56% 29.87 in 10.0 mi North 4.6 mph - N/A   Mostly Cloudy
4:18 PM 33.8 °F 28.6 °F 14.0 °F 44% 29.87 in 10.0 mi NW 5.8 mph - N/A   Scattered Clouds
4:38 PM 33.8 °F 28.6 °F 14.0 °F 44% 29.87 in 10.0 mi NNW 5.8 mph - N/A   Clear
4:58 PM 33.8 °F 28.6 °F 12.2 °F 41% 29.87 in 10.0 mi NNW 5.8 mph - N/A   Clear
5:18 PM 33.8 °F 30.8 °F 12.2 °F 41% 29.87 in 10.0 mi NNW 3.5 mph - N/A   Clear
5:38 PM 33.8 °F 30.8 °F 10.4 °F 38% 29.86 in 10.0 mi NNW 3.5 mph - N/A   Clear
5:58 PM 32.0 °F - 12.2 °F 44% 29.87 in 10.0 mi Calm Calm - N/A   Clear
6:18 PM 32.0 °F - 12.2 °F 44% 29.88 in 10.0 mi Calm Calm - N/A   Clear
6:38 PM 32.0 °F - 10.4 °F 41% 29.88 in 10.0 mi Calm Calm - N/A   Clear
7:58 PM 30.2 °F - 14.0 °F 51% 29.89 in 10.0 mi Calm Calm - N/A   Clear
8:19 PM 30.2 °F - 12.2 °F 47% 29.89 in 10.0 mi Calm Calm - N/A   Clear
8:39 PM 30.2 °F - 12.2 °F 47% 29.90 in 10.0 mi Calm Calm - N/A   Clear
8:59 PM 28.4 °F - 12.2 °F 51% 29.90 in 10.0 mi Calm Calm - N/A   Clear
9:19 PM 28.4 °F - 12.2 °F 51% 29.90 in 10.0 mi Calm Calm - N/A   Clear
9:39 PM 26.6 °F - 12.2 °F 55% 29.91 in 10.0 mi Calm Calm - N/A   Clear
9:59 PM 28.4 °F - 12.2 °F 51% 29.90 in 10.0 mi Calm Calm - N/A   Clear
10:19 PM 28.4 °F 24.6 °F 12.2 °F 51% 29.90 in 10.0 mi ENE 3.5 mph - N/A   Clear
10:39 PM 28.4 °F 24.6 °F 12.2 °F 51% 29.90 in 10.0 mi ENE 3.5 mph - N/A   Clear
10:59 PM 28.4 °F - 12.2 °F 51% 29.91 in 10.0 mi Calm Calm - N/A   Clear
11:19 PM 26.6 °F 22.6 °F 10.4 °F 51% 29.91 in 10.0 mi ENE 3.5 mph - N/A   Clear
11:39 PM 26.6 °F 22.6 °F 10.4 °F 51% 29.91 in 10.0 mi ENE 3.5 mph - N/A   Clear
11:59 PM 26.6 °F 22.6 °F 10.4 °F 51% 29.91 in 10.0 mi NE 3.5 mph - N/A   Clear